Terminal Aerodrome Forecast
Issued by NWS Blacksburg, VA

Current Version | Previous Version | Text Only | Print | Product List | Glossary Off
Versions: 1 2 3 4 5 6 7 8 9 10 11 12 13 14 15 16 17 18 19 20 21 22 23 24 25 26 27 28

000
FTUS41 KRNK 240206 AAA
TAFBLF
TAF AMD
KBLF 240206Z 2402/2424 15010G20KT P6SM -RA SCT015 OVC080
      TEMPO 2402/2406 2SM RA BR BKN006 OVC012
     FM241200 16010G20KT 4SM -RA BR OVC004
     FM242000 19011KT 5SM -SHRA BR OVC007=

USA.gov is the U.S. government's official web portal to all federal, state and local government web resources and services.